Change the Weather History Date:

Saturday, November 2, 2013

  Actual Average (KAQP) Record (KAQP)
Temperature  
Mean Temperature 44 °F -  
Max Temperature 55 °F 45 °F 68 °F (2008)
Min Temperature 32 °F 27 °F 8 °F (1996)
Degree Days  
Heating Degree Days 22    
Moisture  
Dew Point 35 °F    
Average Humidity 75    
Maximum Humidity 93    
Minimum Humidity 44    
Precipitation  
Precipitation 0.00 in - - ()
Sea Level Pressure  
Sea Level Pressure 30.03 in    
Wind  
Wind Speed 8 mph (WNW)    
Max Wind Speed 13 mph    
Max Gust Speed 18 mph    
Visibility 10 miles    
Events      
Averages and records for this station are not official NWS values.
T = Trace of Precipitation, MM = Missing Value Source: NWS Daily Summary

Daily Weather History Graph

Daily Weather History Graph

Search for Another Location

Airport or City:

Trip Planner

Search our weather history database for the weather conditions in past years. The results will help you decide how hot, cold, wet, or windy it might be!

Date:

Astronomy

Nov. 02, 2013 Rise Set
Actual Time 8:04 AM CDT 6:11 PM CDT
Civil Twilight 7:34 AM CDT 6:41 PM CDT
Nautical Twilight 6:59 AM CDT 7:16 PM CDT
Astronomical Twilight 6:25 AM CDT 7:50 PM CDT
Moon 7:01 AM CDT (11/2) 5:44 PM CDT (11/2)
Length of Visible Light 11h 07m
Length of Day
10h 06m
Waning Crescent, 1% of the Moon is Illuminated
Nov 2
Waning Crescent
Nov 3
New
Nov 9
First Quarter
Nov 17
Full
Nov 25
Last Quarter

Hourly Weather History & Observations

Time (CDT) Temp. Windchill Dew Point Humidity Pressure Visibility Wind Dir Wind Speed Gust Speed Precip Events Conditions
12:14 AM 44.6 °F 38.4 °F 39.2 °F 81% 29.94 in 10.0 mi NW 12.7 mph 18.4 mph N/A   Overcast
12:33 AM 44.6 °F 39.2 °F 39.2 °F 81% 29.94 in 10.0 mi NW 10.4 mph - N/A   Mostly Cloudy
12:54 AM 42.8 °F 37.0 °F 39.2 °F 87% 29.95 in 10.0 mi NW 10.4 mph 16.1 mph N/A   Mostly Cloudy
1:14 AM 42.8 °F 38.0 °F 37.4 °F 81% 29.96 in 10.0 mi NW 8.1 mph - N/A   Mostly Cloudy
1:33 AM 42.8 °F 38.0 °F 37.4 °F 81% 29.97 in 10.0 mi NW 8.1 mph - N/A   Mostly Cloudy
1:54 AM 41.0 °F 35.8 °F 37.4 °F 87% 29.98 in 10.0 mi NW 8.1 mph - N/A   Clear
2:14 AM 39.2 °F 34.2 °F 35.6 °F 87% 29.98 in 10.0 mi WNW 6.9 mph - N/A   Clear
2:33 AM 39.2 °F 34.2 °F 35.6 °F 87% 29.99 in 10.0 mi WNW 6.9 mph - N/A   Clear
2:54 AM 37.4 °F 32.1 °F 33.8 °F 87% 29.99 in 10.0 mi WNW 6.9 mph - N/A   Clear
3:14 AM 37.4 °F 30.8 °F 35.6 °F 93% 29.99 in 10.0 mi WNW 9.2 mph - N/A   Clear
3:34 AM 37.4 °F 31.4 °F 35.6 °F 93% 29.99 in 10.0 mi WNW 8.1 mph - N/A   Clear
3:54 AM 35.6 °F 29.2 °F 33.8 °F 93% 29.99 in 10.0 mi West 8.1 mph - N/A   Clear
4:13 AM 35.6 °F 29.2 °F 33.8 °F 93% 29.99 in 10.0 mi West 8.1 mph - N/A   Clear
4:33 AM 35.6 °F 29.2 °F 33.8 °F 93% 29.99 in 10.0 mi WNW 8.1 mph - N/A   Clear
4:53 AM 35.6 °F 29.2 °F 33.8 °F 93% 30.00 in 10.0 mi WNW 8.1 mph - N/A   Clear
5:14 AM 35.6 °F 28.6 °F 32.0 °F 87% 30.01 in 10.0 mi West 9.2 mph - N/A   Clear
5:33 AM 35.6 °F 29.2 °F 32.0 °F 87% 30.01 in 10.0 mi WNW 8.1 mph - N/A   Clear
5:53 AM 35.6 °F 29.2 °F 32.0 °F 87% 30.02 in 10.0 mi West 8.1 mph - N/A   Clear
6:14 AM 33.8 °F 27.7 °F 32.0 °F 93% 30.03 in 10.0 mi WNW 6.9 mph - N/A   Clear
6:33 AM 33.8 °F 27.7 °F 32.0 °F 93% 30.03 in 10.0 mi WNW 6.9 mph - N/A   Clear
6:54 AM 33.8 °F 27.7 °F 30.2 °F 87% 30.04 in 10.0 mi West 6.9 mph - N/A   Clear
7:14 AM 33.8 °F 27.7 °F 30.2 °F 87% 30.04 in 10.0 mi West 6.9 mph - N/A   Clear
7:33 AM 33.8 °F 27.7 °F 30.2 °F 87% 30.04 in 10.0 mi West 6.9 mph - N/A   Clear
7:54 AM 33.8 °F 27.7 °F 30.2 °F 87% 30.04 in 10.0 mi West 6.9 mph - N/A   Clear
8:14 AM 33.8 °F 28.6 °F 30.2 °F 87% 30.04 in 10.0 mi West 5.8 mph - N/A   Clear
8:33 AM 32.0 °F 25.6 °F 30.2 °F 93% 30.05 in 10.0 mi West 6.9 mph - N/A   Clear
8:54 AM 33.8 °F 28.6 °F 30.2 °F 87% 30.05 in 10.0 mi West 5.8 mph - N/A   Clear
9:13 AM 35.6 °F 31.7 °F 32.0 °F 87% 30.06 in 10.0 mi West 4.6 mph - N/A   Clear
9:34 AM 37.4 °F 33.8 °F 33.8 °F 87% 30.06 in 10.0 mi West 4.6 mph - N/A   Clear
9:54 AM 39.2 °F 35.0 °F 35.6 °F 87% 30.06 in 10.0 mi West 5.8 mph - N/A   Clear
10:13 AM 42.8 °F 39.3 °F 35.6 °F 76% 30.07 in 10.0 mi WNW 5.8 mph - N/A   Clear
10:34 AM 44.6 °F 40.7 °F 37.4 °F 76% 30.07 in 10.0 mi WNW 6.9 mph - N/A   Clear
10:54 AM 46.4 °F 42.9 °F 37.4 °F 71% 30.07 in 10.0 mi NW 6.9 mph - N/A   Clear
11:13 AM 46.4 °F 43.5 °F 37.4 °F 71% 30.07 in 10.0 mi WNW 5.8 mph - N/A   Clear
11:34 AM 48.2 °F - 37.4 °F 66% 30.07 in 10.0 mi WNW 3.5 mph - N/A   Clear
11:54 AM 48.2 °F - 35.6 °F 62% 30.07 in 10.0 mi Calm Calm - N/A   Clear
12:13 PM 50.0 °F - 37.4 °F 62% 30.07 in 10.0 mi NW 3.5 mph - N/A   Clear
12:34 PM 51.8 °F - 37.4 °F 58% 30.07 in 10.0 mi NNW 3.5 mph - N/A   Clear
12:54 PM 53.6 °F - 37.4 °F 54% 30.07 in 10.0 mi NW 4.6 mph - N/A   Clear
1:13 PM 53.6 °F - 37.4 °F 54% 30.06 in 10.0 mi WNW 3.5 mph - N/A   Clear
1:34 PM 53.6 °F - 37.4 °F 54% 30.05 in 10.0 mi NNW 5.8 mph - N/A   Clear
1:53 PM 55.4 °F - 37.4 °F 51% 30.05 in 10.0 mi North 4.6 mph - N/A   Clear
2:14 PM 55.4 °F - 37.4 °F 51% 30.04 in 10.0 mi WNW 3.5 mph - N/A   Clear
2:33 PM 55.4 °F - 37.4 °F 51% 30.04 in 10.0 mi WNW 6.9 mph - N/A   Clear
2:54 PM 55.4 °F - 35.6 °F 47% 30.04 in 10.0 mi WNW 9.2 mph - N/A   Clear
3:13 PM 55.4 °F - 35.6 °F 47% 30.04 in 10.0 mi NNW 10.4 mph - N/A   Clear
3:34 PM 55.4 °F - 35.6 °F 47% 30.04 in 10.0 mi WNW 9.2 mph - N/A   Clear
3:53 PM 55.4 °F - 33.8 °F 44% 30.04 in 10.0 mi NNW 9.2 mph - N/A   Clear
4:14 PM 55.4 °F - 33.8 °F 44% 30.03 in 10.0 mi NW 9.2 mph - N/A   Clear
4:34 PM 55.4 °F - 35.6 °F 47% 30.03 in 10.0 mi North 5.8 mph - N/A   Clear
4:53 PM 55.4 °F - 33.8 °F 44% 30.03 in 10.0 mi North 3.5 mph - N/A   Clear
5:14 PM 53.6 °F - 35.6 °F 51% 30.03 in 10.0 mi NNE 4.6 mph - N/A   Clear
5:34 PM 51.8 °F - 35.6 °F 54% 30.03 in 10.0 mi NNE 5.8 mph - N/A   Clear
5:53 PM 51.8 °F - 37.4 °F 58% 30.03 in 10.0 mi ENE 3.5 mph - N/A   Clear
6:14 PM 46.4 °F 43.5 °F 35.6 °F 66% 30.02 in 10.0 mi ENE 5.8 mph - N/A   Clear
6:33 PM 46.4 °F 43.5 °F 35.6 °F 66% 30.03 in 10.0 mi East 5.8 mph - N/A   Clear
6:54 PM 44.6 °F 41.4 °F 35.6 °F 71% 30.03 in 10.0 mi East 5.8 mph - N/A   Clear
7:13 PM 42.8 °F 39.3 °F 33.8 °F 70% 30.03 in 10.0 mi East 5.8 mph - N/A   Clear
7:34 PM 42.8 °F 39.3 °F 33.8 °F 70% 30.03 in 10.0 mi East 5.8 mph - N/A   Clear
7:54 PM 41.0 °F 38.0 °F 33.8 °F 76% 30.03 in 10.0 mi ESE 4.6 mph - N/A   Clear
8:13 PM 42.8 °F 40.1 °F 33.8 °F 70% 30.03 in 10.0 mi SE 4.6 mph - N/A   Clear
8:34 PM 42.8 °F 39.3 °F 33.8 °F 70% 30.02 in 10.0 mi SE 5.8 mph - N/A   Clear
8:54 PM 39.2 °F 37.0 °F 33.8 °F 81% 30.03 in 10.0 mi SSE 3.5 mph - N/A   Clear
9:13 PM 39.2 °F 35.9 °F 33.8 °F 81% 30.02 in 10.0 mi SSE 4.6 mph - N/A   Clear
9:34 PM 39.2 °F 34.2 °F 33.8 °F 81% 30.02 in 10.0 mi SSE 6.9 mph - N/A   Clear
9:53 PM 37.4 °F 33.8 °F 33.8 °F 87% 30.02 in 10.0 mi South 4.6 mph - N/A   Clear
10:14 PM 39.2 °F 35.9 °F 35.6 °F 87% 30.02 in 10.0 mi SSE 4.6 mph - N/A   Clear
10:34 PM 39.2 °F 34.2 °F 35.6 °F 87% 30.02 in 10.0 mi SE 6.9 mph - N/A   Clear
10:53 PM 42.8 °F 39.3 °F 35.6 °F 76% 30.01 in 10.0 mi SE 5.8 mph - N/A   Clear
11:14 PM 41.0 °F 36.4 °F 35.6 °F 81% 30.02 in 10.0 mi SE 6.9 mph - N/A   Clear
11:33 PM 39.2 °F 34.2 °F 35.6 °F 87% 30.01 in 10.0 mi SSE 6.9 mph - N/A   Clear
11:54 PM 39.2 °F 33.6 °F 35.6 °F 87% 30.01 in 10.0 mi SE 8.1 mph - N/A   Clear